Flag for Germany Weather past 2 weeks in Freiburg, Baden-Württemberg, Germany

Now
54 °F

Overcast.


Feels Like: 50 °F
Forecast: 47 / 53 °F
Wind: 12 mph from Southwest

Location: Freiburg

Current Time: Mar 29, 2015 at 7:23:11 PM

Latest Report: Mar 29, 2015 at 6:00 PM


Visibility: 44 mi

Pressure: 29.80 "Hg

Humidity: 73%

Dew point: 45 °F

Location of FreiburgLocation

Historic Weather in Freiburg — Graph

°F

Freiburg temperature yesterday

Maximum temperature yesterday: 57 °F (at 2:00 PM)
Minimum temperature yesterday: 31 °F (at 3:00 AM)
Average temperature yesterday: 45 °F

Past Weeks' High & Low Weather Summary

 TemperatureHumidityPressure
High64 °F (Mar 24, 5:00 PM)100% (Mar 20, 5:00 AM)30.32 "Hg (Mar 20, 5:00 AM)
Low27 °F (Mar 15, 6:00 AM)33% (Mar 24, 5:00 PM)29.64 "Hg (Mar 25, 12:00 PM)
Average45 °F73%30.07 "Hg
* Reported Mar 14 5:00 PM — Mar 29 6:00 PM, Freiburg, Weather by CustomWeather, © 2015

Note: Actual official high and low records may vary slightly from our data, if they occured in-between our weather recording intervals... More about our weather records

Advertising

Freiburg weather history for previous 24 hours

 ConditionsComfort  
Time TempWeatherWind HumidityBarometerVisibility
6:00 PM
Sun, Mar 29
54 °FOvercast.12 mph73%29.80 "Hg43 mi
4:00 PM52 °FOvercast.13 mph75%29.86 "Hg43 mi
3:00 PM52 °FOvercast.13 mph74%29.88 "Hg43 mi
1:00 PM51 °FOvercast.12 mph76%29.92 "Hg43 mi
12:00 PM52 °FDrizzle. Overcast.12 mph77%29.93 "Hg40 mi
10:00 AM52 °FOvercast.10 mph79%29.96 "Hg43 mi
9:00 AM51 °FOvercast.9 mph77%29.98 "Hg43 mi
7:00 AM51 °FOvercast.9 mph77%29.98 "Hg43 mi
6:00 AM52 °FOvercast.9 mph74%30.00 "Hg43 mi
5:00 AM52 °FOvercast.7 mph77%30.01 "Hg43 mi
4:00 AM52 °FOvercast.9 mph80%30.04 "Hg34 mi
3:00 AM53 °FOvercast.8 mph80%30.05 "Hg40 mi
12:00 AM51 °FOvercast.7 mph83%30.07 "Hg31 mi
11:00 PM
Sat, Mar 28
50 °FPassing clouds.6 mph83%30.08 "Hg2 mi
9:00 PM49 °FOvercast.8 mph82%30.13 "Hg31 mi
8:00 PM49 °FOvercast.8 mph80%30.12 "Hg43 mi
7:00 PMN/APassing clouds.7 mphN/AN/A3 mi
Weather by CustomWeather, © 2015

See weather overviewHow to use our weather pages